Location: Northam
(31.6525°S, 116.6655°E)
Time: 15:22:20
(UTC+08:00)

ISS - Visible Passes

Search period start: 12 August 2020 00:00
Search period end: 22 August 2020 00:00
Orbit: 418 x 420 km, 51.6° (Epoch: 12 August)

Date Brightness Start Highest point End Pass type
(mag) Time Alt. Az. Time Alt. Az. Time Alt. Az.
12 Aug -1.4 04:50:37 22° SE 04:50:37 22° SE 04:52:53 10° E visible
12 Aug -2.5 06:23:58 10° WSW 06:26:53 26° NW 06:29:46 10° N visible
13 Aug -3.6 05:38:28 38° W 05:39:23 52° NW 05:42:41 10° NNE visible
14 Aug -1.9 04:53:26 29° NE 04:53:26 29° NE 04:55:13 10° NE visible
15 Aug -1.5 05:41:30 13° NW 05:41:30 13° NW 05:42:34 10° NNW visible
15 Aug -1.2 19:05:08 10° NNE 19:05:28 11° NNE 19:05:28 11° NNE visible
16 Aug -1.1 19:52:36 10° NW 19:53:38 18° NW 19:53:38 18° NW visible
17 Aug -3.7 19:05:04 10° NNW 19:08:23 55° NE 19:08:44 52° ENE visible
18 Aug -2.6 18:17:55 10° N 18:20:50 27° NE 18:23:43 10° ESE visible
18 Aug -1.1 19:54:52 10° W 19:56:43 20° WSW 19:56:43 20° WSW visible
19 Aug -2.4 19:06:40 10° WNW 19:09:51 37° SW 19:11:35 22° SSE visible
20 Aug -3.5 18:18:47 10° NW 18:22:10 73° SW 18:25:35 10° SE visible
21 Aug -1.0 19:09:37 10° WSW 19:11:34 14° SSW 19:13:30 10° S visible
